| time (UTC) | temp C | wind direction | speed KPH | gust KPH | rain 1hr cm | rain 24hr cm | rain mn cm | humidity % | barometer mb |
| 20260504192204 | 13 | 130 | 1.6 | 3.2 | 0.00 | 0.00 | 0.00 | 69 | 1009.8 |
| 20260504192113 | 13 | 131 | 1.6 | 3.2 | 0.00 | 0.00 | 0.00 | 68 | 1009.7 |
| 20260504192004 | 13 | 134 | 1.6 | 3.2 | 0.00 | 0.00 | 0.00 | 67 | 1009.7 |
| 20260504190404 | 14 | 334 | 1.6 | 9.7 | 0.00 | 0.00 | 0.00 | 64 | 1010.4 |
| 20260504190203 | 14 | 310 | 1.6 | 9.7 | 0.00 | 0.00 | 0.00 | 63 | 1010.5 |
| 20260504190104 | 15 | 255 | 3.2 | 9.7 | 0.00 | 0.00 | 0.00 | 63 | 1010.4 |
| 20260504190004 | 15 | 204 | 3.2 | 9.7 | 0.00 | 0.00 | 0.00 | 64 | 1010.5 |
| 20260504185904 | 15 | 185 | 3.2 | 9.7 | 0.00 | 0.00 | 0.00 | 63 | 1010.5 |
| 20260504185804 | 15 | 176 | 1.6 | 6.4 | 0.00 | 0.00 | 0.00 | 63 | 1010.1 |
| 20260504185703 | 15 | 171 | 1.6 | 4.8 | 0.00 | 0.00 | 0.00 | 63 | 1010.3 |
| 20260504185603 | 15 | 169 | 3.2 | 4.8 | 0.00 | 0.00 | 0.00 | 63 | 1010.3 |
| 20260504185503 | 15 | 168 | 1.6 | 4.8 | 0.00 | 0.00 | 0.00 | 61 | 1010.3 |
| 20260504185419 | 15 | 168 | 3.2 | 4.8 | 0.00 | 0.00 | 0.00 | 61 | 1010.4 |
| 20260504185403 | 15 | 170 | 3.2 | 4.8 | 0.00 | 0.00 | 0.00 | 61 | 1010.4 |
| 20260504185304 | 15 | 172 | 1.6 | 4.8 | 0.00 | 0.00 | 0.00 | 60 | 1010.2 |
| 20260504185119 | 15 | 173 | 1.6 | 4.8 | 0.00 | 0.00 | 0.00 | 60 | 1010.1 |
| 20260504185103 | 15 | 174 | 1.6 | 4.8 | 0.00 | 0.00 | 0.00 | 60 | 1010.1 |
| 20260504185005 | 15 | 176 | 1.6 | 4.8 | 0.00 | 0.00 | 0.00 | 60 | 1010.2 |
| 20260504184819 | 15 | 179 | 1.6 | 4.8 | 0.00 | 0.00 | 0.00 | 59 | 1010.3 |
| 20260504184805 | 15 | 178 | 1.6 | 4.8 | 0.00 | 0.00 | 0.00 | 59 | 1010.3 |
| 20260504184704 | 15 | 180 | 1.6 | 4.8 | 0.00 | 0.00 | 0.00 | 59 | 1010.2 |
| 20260504184620 | 15 | 180 | 1.6 | 4.8 | 0.00 | 0.00 | 0.00 | 59 | 1010.2 |
| 20260504184505 | 15 | 182 | 1.6 | 4.8 | 0.00 | 0.00 | 0.00 | 59 | 1010.1 |
| 20260504184303 | 15 | 181 | 1.6 | 6.4 | 0.00 | 0.00 | 0.00 | 59 | 1010.2 |
| 20260504184205 | 15 | 182 | 3.2 | 6.4 | 0.00 | 0.00 | 0.00 | 59 | 1010.2 |
| 20260504184103 | 15 | 181 | 3.2 | 6.4 | 0.00 | 0.00 | 0.00 | 59 | 1010.1 |
| 20260504184004 | 15 | 179 | 3.2 | 6.4 | 0.00 | 0.00 | 0.00 | 58 | 1010.2 |
| 20260504183903 | 15 | 179 | 3.2 | 6.4 | 0.00 | 0.00 | 0.00 | 59 | 1010.1 |
| 20260504183804 | 15 | 180 | 3.2 | 6.4 | 0.00 | 0.00 | 0.00 | 58 | 1010.2 |
| 20260504183604 | 16 | 180 | 3.2 | 6.4 | 0.00 | 0.00 | 0.00 | 58 | 1010.2 |
| 20260504183504 | 16 | 181 | 3.2 | 6.4 | 0.00 | 0.00 | 0.00 | 57 | 1010.3 |
| 20260504183404 | 16 | 181 | 1.6 | 6.4 | 0.00 | 0.00 | 0.00 | 57 | 1010.2 |
| 20260504183216 | 16 | 180 | 1.6 | 4.8 | 0.00 | 0.00 | 0.00 | 57 | 1010.2 |
| 20260504183204 | 16 | 181 | 1.6 | 4.8 | 0.00 | 0.00 | 0.00 | 57 | 1010.2 |
| 20260504183103 | 16 | 185 | 1.6 | 4.8 | 0.00 | 0.00 | 0.00 | 57 | 1010.4 |
| 20260504182904 | 16 | 189 | 1.6 | 3.2 | 0.00 | 0.00 | 0.00 | 57 | 1010.1 |
| 20260504182803 | 16 | 192 | 1.6 | 3.2 | 0.00 | 0.00 | 0.00 | 57 | 1010.1 |
| 20260504182705 | 16 | 198 | 1.6 | 3.2 | 0.00 | 0.00 | 0.00 | 57 | 1010.3 |
| 20260504182620 | 16 | 200 | 1.6 | 3.2 | 0.00 | 0.00 | 0.00 | 57 | 1010.0 |
| 20260504182603 | 16 | 202 | 0.0 | 3.2 | 0.00 | 0.00 | 0.00 | 57 | 1010.0 |
| 20260504182505 | 16 | 202 | 0.0 | 3.2 | 0.00 | 0.00 | 0.00 | 56 | 1010.1 |
| 20260504182417 | 16 | 210 | 0.0 | 3.2 | 0.00 | 0.00 | 0.00 | 55 | 1010.3 |
| 20260504182304 | 16 | 221 | 0.0 | 1.6 | 0.00 | 0.00 | 0.00 | 57 | 1010.1 |
| 20260504182103 | 16 | 221 | 0.0 | 1.6 | 0.00 | 0.00 | 0.00 | 57 | 1010.2 |
| 20260504182003 | 16 | 0 | 0.0 | 1.6 | 0.00 | 0.00 | 0.00 | 56 | 1010.0 |
| 20260504181903 | 17 | 0 | 0.0 | 1.6 | 0.00 | 0.00 | 0.00 | 57 | 1010.0 |
| 20260504181803 | 17 | 0 | 0.0 | 1.6 | 0.00 | 0.00 | 0.00 | 57 | 1010.2 |
| 20260504181705 | 17 | 0 | 0.0 | 1.6 | 0.00 | 0.00 | 0.00 | 57 | 1010.1 |
| 20260504181604 | 17 | 0 | 0.0 | 1.6 | 0.00 | 0.00 | 0.00 | 56 | 1010.1 |
| 20260504181503 | 17 | 0 | 0.0 | 1.6 | 0.00 | 0.00 | 0.00 | 56 | 1010.2 |
| 20260504181403 | 17 | 221 | 0.0 | 1.6 | 0.00 | 0.00 | 0.00 | 56 | 1010.0 |
| 20260504181204 | 17 | 221 | 0.0 | 1.6 | 0.00 | 0.00 | 0.00 | 54 | 1009.9 |
| 20260504181119 | 17 | 221 | 0.0 | 1.6 | 0.00 | 0.00 | 0.00 | 54 | 1010.1 |
| 20260504181105 | 17 | 221 | 0.0 | 1.6 | 0.00 | 0.00 | 0.00 | 53 | 1010.1 |
| 20260504181004 | 17 | 221 | 0.0 | 1.6 | 0.00 | 0.00 | 0.00 | 53 | 1009.9 |
| 20260504180704 | 18 | 222 | 0.0 | 1.6 | 0.00 | 0.00 | 0.00 | 53 | 1010.0 |
| 20260504180603 | 18 | 222 | 0.0 | 1.6 | 0.00 | 0.00 | 0.00 | 53 | 1009.8 |
| 20260504180505 | 18 | 222 | 0.0 | 1.6 | 0.00 | 0.00 | 0.00 | 54 | 1010.1 |
| 20260504180404 | 18 | 222 | 0.0 | 1.6 | 0.00 | 0.00 | 0.00 | 53 | 1009.8 |
| 20260504180304 | 18 | 221 | 0.0 | 1.6 | 0.00 | 0.00 | 0.00 | 54 | 1009.8 |
| 20260504180206 | 18 | 221 | 0.0 | 3.2 | 0.00 | 0.00 | 0.00 | 52 | 1010.1 |
| 20260504180103 | 18 | 221 | 0.0 | 3.2 | 0.00 | 0.00 | 0.00 | 51 | 1009.9 |
| 20260504180004 | 18 | 221 | 0.0 | 3.2 | 0.00 | 0.00 | 0.00 | 50 | 1010.0 |
| 20260504175803 | 19 | 218 | 1.6 | 4.8 | 0.00 | 0.00 | 0.00 | 49 | 1009.8 |
| 20260504175704 | 19 | 219 | 1.6 | 4.8 | 0.00 | 0.00 | 0.00 | 49 | 1009.8 |
| 20260504175603 | 19 | 218 | 1.6 | 4.8 | 0.00 | 0.00 | 0.00 | 50 | 1009.9 |
| 20260504175505 | 20 | 218 | 1.6 | 4.8 | 0.00 | 0.00 | 0.00 | 48 | 1009.8 |
| 20260504175404 | 20 | 216 | 1.6 | 4.8 | 0.00 | 0.00 | 0.00 | 48 | 1009.8 |
| 20260504175304 | 20 | 213 | 1.6 | 4.8 | 0.00 | 0.00 | 0.00 | 48 | 1009.7 |
| 20260504175204 | 20 | 213 | 1.6 | 4.8 | 0.00 | 0.00 | 0.00 | 46 | 1009.8 |
| 20260504175103 | 20 | 212 | 1.6 | 4.8 | 0.00 | 0.00 | 0.00 | 47 | 1009.7 |
| 20260504175017 | 20 | 213 | 1.6 | 4.8 | 0.00 | 0.00 | 0.00 | 45 | 1009.7 |
| 20260504175003 | 20 | 214 | 1.6 | 4.8 | 0.00 | 0.00 | 0.00 | 45 | 1009.7 |
| 20260504174903 | 20 | 217 | 1.6 | 4.8 | 0.00 | 0.00 | 0.00 | 45 | 1009.7 |
| 20260504174704 | 20 | 218 | 1.6 | 4.8 | 0.00 | 0.00 | 0.00 | 43 | 1009.6 |
| 20260504174619 | 21 | 217 | 1.6 | 4.8 | 0.00 | 0.00 | 0.00 | 45 | 1009.7 |
| 20260504174603 | 21 | 216 | 1.6 | 4.8 | 0.00 | 0.00 | 0.00 | 45 | 1009.7 |
| 20260504174504 | 21 | 220 | 1.6 | 4.8 | 0.00 | 0.00 | 0.00 | 42 | 1009.6 |
| 20260504174319 | 21 | 233 | 1.6 | 9.7 | 0.00 | 0.00 | 0.00 | 44 | 1009.6 |
| 20260504174303 | 21 | 236 | 1.6 | 9.7 | 0.00 | 0.00 | 0.00 | 44 | 1009.6 |
| 20260504174204 | 21 | 235 | 1.6 | 9.7 | 0.00 | 0.00 | 0.00 | 44 | 1009.5 |
| 20260504174004 | 21 | 236 | 1.6 | 9.7 | 0.00 | 0.00 | 0.00 | 42 | 1009.7 |
| 20260504173903 | 21 | 236 | 1.6 | 9.7 | 0.00 | 0.00 | 0.00 | 42 | 1009.7 |
| 20260504173803 | 21 | 233 | 1.6 | 9.7 | 0.00 | 0.00 | 0.00 | 42 | 1009.6 |
| 20260504173705 | 21 | 232 | 3.2 | 9.7 | 0.00 | 0.00 | 0.00 | 43 | 1009.6 |
| 20260504173603 | 22 | 235 | 3.2 | 9.7 | 0.00 | 0.00 | 0.00 | 41 | 1009.7 |
| 20260504173504 | 22 | 234 | 3.2 | 9.7 | 0.00 | 0.00 | 0.00 | 42 | 1009.6 |
| 20260504173419 | 22 | 232 | 3.2 | 9.7 | 0.00 | 0.00 | 0.00 | 38 | 1009.7 |
| 20260504173403 | 22 | 231 | 3.2 | 9.7 | 0.00 | 0.00 | 0.00 | 38 | 1009.7 |
| 20260504173103 | 22 | 228 | 3.2 | 9.7 | 0.00 | 0.00 | 0.00 | 39 | 1009.6 |
| 20260504173003 | 22 | 227 | 3.2 | 9.7 | 0.00 | 0.00 | 0.00 | 37 | 1009.4 |
| 20260504172822 | 22 | 227 | 3.2 | 12.9 | 0.00 | 0.00 | 0.00 | 38 | 1009.5 |
| 20260504172804 | 22 | 228 | 3.2 | 12.9 | 0.00 | 0.00 | 0.00 | 38 | 1009.5 |
| 20260504172704 | 22 | 228 | 3.2 | 12.9 | 0.00 | 0.00 | 0.00 | 36 | 1009.3 |
| 20260504172518 | 23 | 228 | 3.2 | 12.9 | 0.00 | 0.00 | 0.00 | 36 | 1009.4 |
| 20260504172503 | 23 | 229 | 3.2 | 12.9 | 0.00 | 0.00 | 0.00 | 36 | 1009.4 |
| 20260504172404 | 23 | 231 | 3.2 | 12.9 | 0.00 | 0.00 | 0.00 | 35 | 1009.6 |
| 20260504172204 | 23 | 232 | 4.8 | 12.9 | 0.00 | 0.00 | 0.00 | 35 | 1009.5 |
| 20260504172109 | 23 | 233 | 4.8 | 12.9 | 0.00 | 0.00 | 0.00 | 35 | 1009.5 |
| 20260504172004 | 23 | 236 | 4.8 | 12.9 | 0.00 | 0.00 | 0.00 | 36 | 1009.5 |
| 20260504171905 | 23 | 239 | 4.8 | 12.9 | 0.00 | 0.00 | 0.00 | 34 | 1009.4 |
| 20260504171803 | 23 | 239 | 4.8 | 12.9 | 0.00 | 0.00 | 0.00 | 35 | 1009.4 |
| 20260504171704 | 23 | 244 | 4.8 | 16.1 | 0.00 | 0.00 | 0.00 | 34 | 1009.4 |
| 20260504171604 | 23 | 244 | 4.8 | 16.1 | 0.00 | 0.00 | 0.00 | 33 | 1009.4 |
| 20260504171503 | 23 | 246 | 4.8 | 16.1 | 0.00 | 0.00 | 0.00 | 34 | 1009.4 |
| 20260504171403 | 23 | 247 | 4.8 | 16.1 | 0.00 | 0.00 | 0.00 | 35 | 1009.3 |
| 20260504171303 | 23 | 250 | 4.8 | 16.1 | 0.00 | 0.00 | 0.00 | 32 | 1009.4 |
| 20260504171215 | 23 | 250 | 4.8 | 16.1 | 0.00 | 0.00 | 0.00 | 34 | 1009.5 |
| 20260504171103 | 23 | 245 | 4.8 | 16.1 | 0.00 | 0.00 | 0.00 | 33 | 1009.5 |
| 20260504170919 | 23 | 243 | 4.8 | 16.1 | 0.00 | 0.00 | 0.00 | 34 | 1009.5 |
| 20260504170903 | 23 | 242 | 4.8 | 16.1 | 0.00 | 0.00 | 0.00 | 33 | 1009.5 |
| 20260504170804 | 23 | 243 | 4.8 | 16.1 | 0.00 | 0.00 | 0.00 | 33 | 1009.5 |
| 20260504170605 | 24 | 243 | 4.8 | 16.1 | 0.00 | 0.00 | 0.00 | 33 | 1009.3 |
| 20260504170504 | 24 | 237 | 3.2 | 11.3 | 0.00 | 0.00 | 0.00 | 33 | 1009.3 |
| 20260504170403 | 24 | 235 | 4.8 | 11.3 | 0.00 | 0.00 | 0.00 | 33 | 1009.3 |
| 20260504170304 | 24 | 236 | 3.2 | 11.3 | 0.00 | 0.00 | 0.00 | 33 | 1009.3 |
| 20260504170203 | 24 | 238 | 3.2 | 11.3 | 0.00 | 0.00 | 0.00 | 32 | 1009.2 |
| 20260504160403 | 25 | 230 | 9.7 | 27.4 | 0.00 | 0.00 | 0.00 | 29 | 1009.3 |
| 20260504160304 | 25 | 227 | 9.7 | 27.4 | 0.00 | 0.00 | 0.00 | 29 | 1009.3 |
| 20260504160204 | 25 | 223 | 11.3 | 27.4 | 0.00 | 0.00 | 0.00 | 29 | 1009.4 |
| 20260504160103 | 25 | 228 | 11.3 | 27.4 | 0.00 | 0.00 | 0.00 | 29 | 1009.4 |
| 20260504141303 | 26 | 242 | 8.0 | 25.7 | 0.00 | 0.00 | 0.00 | 28 | 1009.9 |
| 20260504141218 | 26 | 244 | 8.0 | 25.7 | 0.00 | 0.00 | 0.00 | 28 | 1009.7 |
| 20260504141205 | 26 | 244 | 9.7 | 25.7 | 0.00 | 0.00 | 0.00 | 28 | 1009.7 |
| 20260504141104 | 26 | 244 | 9.7 | 25.7 | 0.00 | 0.00 | 0.00 | 28 | 1009.7 |
| 20260504141021 | 26 | 242 | 9.7 | 25.7 | 0.00 | 0.00 | 0.00 | 28 | 1009.9 |
| 20260504140903 | 26 | 243 | 11.3 | 25.7 | 0.00 | 0.00 | 0.00 | 28 | 1009.9 |
| 20260504140704 | 26 | 245 | 11.3 | 25.7 | 0.00 | 0.00 | 0.00 | 27 | 1009.9 |
| 20260504140605 | 26 | 246 | 9.7 | 25.7 | 0.00 | 0.00 | 0.00 | 28 | 1010.0 |
| 20260504140503 | 26 | 242 | 11.3 | 25.7 | 0.00 | 0.00 | 0.00 | 28 | 1009.9 |
| 20260504140403 | 26 | 242 | 11.3 | 25.7 | 0.00 | 0.00 | 0.00 | 27 | 1010.0 |
| 20260504140318 | 26 | 243 | 11.3 | 25.7 | 0.00 | 0.00 | 0.00 | 28 | 1010.0 |
| 20260504140305 | 26 | 242 | 9.7 | 22.5 | 0.00 | 0.00 | 0.00 | 28 | 1010.0 |
| 20260504140216 | 26 | 240 | 9.7 | 22.5 | 0.00 | 0.00 | 0.00 | 27 | 1009.9 |
| 20260504140205 | 26 | 240 | 9.7 | 22.5 | 0.00 | 0.00 | 0.00 | 27 | 1009.9 |